Tracking 28091 objects as of 30-Sep-2023
HD Live streaming from Space Station
objects crossing your sky now

STARLINK-30274

Track STARLINK-30274 now!
10-day predictions
STARLINK-30274 is classified as:


NORAD ID: 57672
Int'l Code: 2023-124K
Perigee: 516.0 km
Apogee: 517.6 km
Inclination: 53.1 °
Period: 94.8 minutes
Semi major axis: 6887 km
RCS: Unknown
Launch date: August 22, 2023
Source: United States (US)
Launch site: AIR FORCE WESTERN TEST RANGE (AFWTR)
Your satellite tracking list
Your tracking list is empty




NASA's NSSDC Master Catalog

Two Line Element Set (TLE):
1 57672U 23124K   23273.27732474  .00009233  00000-0  45375-3 0  9996
2 57672  53.0513  16.3502 0001157 119.2203 240.8907 15.18733261  7122
Source of the keplerian elements: AFSPC